PACCTY Weather Reports


Display with metric or nautical units.
time (UTC)temp
F
wind
direction
speed
MPH
gust
MPH
rain 1hr
in
rain 24hr
in
rain mn
in
humidity
%
barometer
mb
20260903073337 58 0 0.0 0.0 0.01 0.29 0.00 97 1007.8
20260903073138 58 0 0.0 0.0 0.01 0.29 0.00 97 1007.8
20260903072834 58 0 0.0 0.0 0.01 0.29 0.00 97 1007.8
20260903072334 58 0 0.0 0.0 0.01 0.29 0.00 97 1007.8
20260903071834 58 0 0.0 0.0 0.01 0.29 0.00 97 1007.8
20260903071335 58 0 0.0 4.0 0.01 0.29 0.00 97 1007.8
20260903070835 58 180 0.0 4.0 0.01 0.29 0.00 97 1007.8
20260903070336 58 0 1.0 1.0 0.01 0.29 0.00 97 1007.7
20260903065834 58 0 0.0 0.0 0.01 0.29 0.29 97 1007.7
20260903064834 58 0 0.0 0.0 0.00 0.29 0.29 97 1007.8
20260903064337 58 0 0.0 0.0 0.00 0.28 0.28 97 1007.7
20260903063835 58 0 0.0 0.0 0.00 0.28 0.28 97 1007.7
20260903063423 58 0 0.0 0.0 0.00 0.28 0.28 97 1007.8
20260903063335 58 0 0.0 0.0 0.00 0.28 0.28 97 1007.8
20260903062834 58 0 0.0 0.0 0.00 0.28 0.28 97 1007.8
20260903062338 58 0 0.0 0.0 0.00 0.28 0.28 97 1007.8
20260903061834 58 0 0.0 0.0 0.00 0.28 0.28 97 1007.9
20260903061335 58 0 0.0 0.0 0.00 0.28 0.28 97 1007.9
20260903060835 58 0 0.0 0.0 0.00 0.28 0.28 97 1007.9
20260903060335 58 0 0.0 0.0 0.00 0.28 0.28 97 1007.9
20260903055834 58 0 0.0 0.0 0.00 0.28 0.28 97 1008.0
20260903055338 58 0 0.0 0.0 0.00 0.28 0.28 97 1008.0
20260903054834 57 0 0.0 0.0 0.00 0.28 0.28 97 1008.0
20260903054336 57 0 0.0 0.0 0.00 0.28 0.28 97 1008.1
20260903053837 57 0 0.0 0.0 0.00 0.28 0.28 97 1008.1
20260903053337 58 0 0.0 0.0 0.00 0.28 0.28 97 1008.0
20260903052834 57 0 0.0 0.0 0.00 0.28 0.28 97 1008.0
20260903051834 57 0 0.0 0.0 0.00 0.28 0.28 97 1008.0
20260903051336 57 0 0.0 0.0 0.00 0.28 0.28 97 1008.0
20260903050834 57 0 0.0 0.0 0.00 0.28 0.28 97 1008.0
20260903045834 57 0 0.0 0.0 0.00 0.28 0.28 97 1008.0
20260903045337 57 0 0.0 0.0 0.00 0.28 0.28 97 1008.0
20260903044834 57 0 0.0 0.0 0.00 0.28 0.28 97 1007.9
20260903043834 57 0 0.0 0.0 0.00 0.28 0.28 97 1008.0
20260903043336 57 0 0.0 0.0 0.00 0.28 0.28 97 1008.0
20260903042834 58 0 0.0 0.0 0.00 0.28 0.28 97 1008.0
20260903041834 58 0 0.0 0.0 0.01 0.28 0.28 97 1007.9
20260903041334 58 0 0.0 0.0 0.01 0.28 0.28 96 1007.9
20260903040835 58 0 0.0 0.0 0.01 0.28 0.28 96 1007.8
20260903035834 58 0 0.0 0.0 0.01 0.28 0.28 96 1007.7
20260903035339 58 0 0.0 0.0 0.01 0.28 0.28 96 1007.6
20260903034834 59 0 0.0 0.0 0.01 0.28 0.28 96 1007.6
20260903034335 59 0 0.0 0.0 0.01 0.28 0.28 96 1007.6
20260903033834 59 0 0.0 0.0 0.01 0.28 0.28 96 1007.6
20260903033336 59 0 0.0 0.0 0.01 0.28 0.28 96 1007.4
20260903032834 59 0 0.0 0.0 0.01 0.28 0.28 96 1007.4
20260903032339 59 0 0.0 0.0 0.00 0.27 0.27 95 1007.4
20260903031834 59 0 0.0 0.0 0.00 0.27 0.27 95 1007.4
20260903031336 59 0 0.0 0.0 0.00 0.27 0.27 95 1007.5
20260903030337 59 226 0.0 5.0 0.00 0.27 0.27 94 1007.5
20260903025833 59 204 3.0 4.0 0.00 0.27 0.27 94 1007.4
20260903024833 59 215 3.0 5.0 0.00 0.27 0.27 94 1007.3
20260903024336 59 214 0.0 5.0 0.00 0.27 0.27 94 1007.3
20260903023834 59 218 3.0 5.0 0.00 0.27 0.27 94 1007.4
20260903023336 59 205 3.0 5.0 0.00 0.27 0.27 94 1007.4
20260903022834 59 207 1.0 5.0 0.00 0.27 0.27 94 1007.4
20260903022337 59 218 4.0 5.0 0.00 0.27 0.27 93 1007.4
20260903021833 60 201 3.0 5.0 0.00 0.27 0.27 93 1007.2
20260903021336 60 233 3.0 5.0 0.00 0.27 0.27 93 1007.2
20260903015927 60 215 4.0 5.0 0.00 0.27 0.27 93 1007.1
20260903015833 60 215 4.0 5.0 0.00 0.27 0.27 93 1007.1
20260903015337 60 194 4.0 8.0 0.00 0.27 0.27 92 1007.1
20260903014833 60 252 5.0 8.0 0.00 0.27 0.27 92 1007.1
20260903014336 60 228 5.0 6.0 0.00 0.27 0.27 92 1007.1
20260903013835 61 222 4.0 6.0 0.00 0.27 0.27 92 1007.1
20260903013335 61 224 5.0 6.0 0.00 0.27 0.27 92 1007.1
20260903012834 61 214 5.0 6.0 0.00 0.27 0.27 92 1007.1
20260903012339 61 219 5.0 6.0 0.00 0.27 0.27 92 1007.1
20260903011833 61 211 4.0 6.0 0.00 0.27 0.27 92 1007.0
20260903011334 61 204 4.0 6.0 0.00 0.27 0.27 92 1007.1
20260903005834 62 232 6.0 7.0 0.00 0.27 0.27 90 1007.0
20260903004833 62 225 6.0 7.0 0.00 0.27 0.27 90 1007.0
20260903003834 63 228 6.0 8.0 0.00 0.27 0.27 89 1006.9
20260903002834 63 211 6.0 7.0 0.00 0.27 0.27 90 1006.8
20260903001833 63 214 5.0 7.0 0.00 0.27 0.27 90 1006.7
20260903000336 63 0 0.0 0.0 0.00 0.27 0.27 91 1006.6
20260902235833 63 0 0.0 0.0 0.00 0.27 0.27 91 1006.5
20260902235333 63 0 0.0 0.0 0.00 0.27 0.27 92 1006.4
20260902234833 63 0 0.0 0.0 0.00 0.27 0.27 91 1006.4
20260902234335 63 0 0.0 0.0 0.00 0.27 0.27 90 1006.5
20260902232833 63 0 0.0 0.0 0.00 0.27 0.27 93 1006.2
20260902232337 63 0 0.0 0.0 0.00 0.27 0.27 93 1006.2
20260902231833 63 0 0.0 0.0 0.00 0.27 0.27 93 1006.2
20260902231335 63 0 0.0 0.0 0.00 0.27 0.27 94 1006.1
20260902230335 63 0 0.0 0.0 0.00 0.27 0.27 96 1006.1
20260902225833 63 0 0.0 0.0 0.00 0.27 0.27 97 1006.0
20260902225334 63 0 0.0 0.0 0.00 0.27 0.27 98 1005.9
20260902224833 63 0 0.0 0.0 0.00 0.27 0.27 98 1005.8
20260902224335 63 0 0.0 0.0 0.00 0.27 0.27 99 1005.6
20260902223834 63 0 0.0 0.0 0.00 0.27 0.27 99 1005.8
20260902222924 62 0 0.0 0.0 0.00 0.27 0.27 99 1005.8
20260902222833 62 0 0.0 0.0 0.00 0.27 0.27 99 1005.8
20260902222338 61 0 0.0 0.0 0.01 0.27 0.27 99 1005.8
20260902221833 61 0 0.0 0.0 0.01 0.27 0.27 99 1005.8
20260902221336 61 0 0.0 0.0 0.01 0.27 0.27 99 1005.7
20260902220834 61 0 0.0 0.0 0.01 0.27 0.27 99 1005.7
20260902220335 61 0 0.0 0.0 0.01 0.27 0.27 99 1005.7
20260902215833 61 0 0.0 0.0 0.01 0.27 0.27 99 1005.7
20260902214833 61 0 0.0 0.0 0.01 0.27 0.27 99 1005.6
20260902214336 60 0 0.0 0.0 0.01 0.27 0.27 99 1005.6
20260902213336 60 0 0.0 0.0 0.01 0.27 0.27 99 1005.4
20260902212833 60 0 0.0 0.0 0.01 0.27 0.27 99 1005.4
20260902211834 60 0 0.0 0.0 0.01 0.26 0.26 99 1005.3
20260902211336 60 0 0.0 0.0 0.01 0.26 0.26 99 1005.2
20260902210335 60 0 0.0 0.0 0.01 0.26 0.26 99 1005.1
20260902205833 59 0 0.0 0.0 0.01 0.26 0.26 99 1005.1
20260902204833 59 0 0.0 0.0 0.01 0.26 0.26 99 1005.0
20260902203335 59 212 0.0 7.0 0.01 0.26 0.26 99 1004.8
20260902202833 59 214 0.0 7.0 0.01 0.26 0.26 99 1004.8
20260902201834 59 208 2.0 9.0 0.00 0.26 0.26 99 1004.4
20260902201333 59 224 5.0 9.0 0.01 0.25 0.25 99 1004.3
20260902200336 59 218 7.0 13.0 0.02 0.25 0.25 99 1004.1
20260902195833 59 210 8.0 13.0 0.02 0.25 0.25 99 1004.0
20260902195337 59 177 9.0 11.0 0.02 0.25 0.25 99 1004.0
20260902194833 59 180 9.0 10.0 0.02 0.25 0.25 99 1004.0
20260902194334 59 205 9.0 10.0 0.02 0.25 0.25 99 1004.0
20260902193834 59 196 7.0 8.0 0.02 0.25 0.25 99 1004.0
20260902193335 59 0 0.0 4.0 0.02 0.25 0.25 99 1004.1
20260902192833 59 0 0.0 0.0 0.02 0.25 0.25 99 1004.2
20260902192337 59 219 0.0 4.0 0.02 0.25 0.25 99 1004.1
20260902190834 59 0 0.0 0.0 0.01 0.24 0.24 98 1003.9
20260902185834 59 0 0.0 0.0 0.01 0.24 0.24 98 1003.9
20260902185338 59 0 0.0 0.0 0.02 0.23 0.23 98 1003.9
20260902184833 59 0 0.0 0.0 0.02 0.23 0.23 98 1003.7
20260902183834 59 205 0.0 2.0 0.03 0.23 0.23 98 1003.8
20260902182833 59 205 0.0 4.0 0.05 0.23 0.23 98 1003.7
20260902181833 58 0 1.0 1.0 0.06 0.23 0.23 98 1003.6
20260902180833 58 0 0.0 0.0 0.07 0.23 0.23 98 1003.6
20260902175833 58 0 0.0 0.0 0.07 0.22 0.22 98 1003.6
20260902174833 58 0 0.0 0.0 0.06 0.21 0.21 98 1003.7
20260902173835 58 0 0.0 0.0 0.06 0.20 0.20 98 1003.8
20260902172833 58 0 0.0 0.0 0.05 0.19 0.19 98 1003.7
20260902171833 59 0 0.0 0.0 0.04 0.17 0.17 98 1003.8
20260902170833 58 0 0.0 0.0 0.04 0.16 0.16 98 1003.9
20260902165833 59 0 0.0 0.0 0.03 0.16 0.16 98 1003.9
20260902164833 59 0 0.0 0.0 0.05 0.15 0.15 97 1004.2
20260902162833 59 0 0.0 0.0 0.05 0.13 0.13 97 1004.6
20260902161833 58 0 0.0 0.0 0.06 0.13 0.13 97 1004.7
20260902155833 58 0 0.0 0.0 0.08 0.12 0.12 97 1005.1
20260902154833 58 0 0.0 0.0 0.08 0.11 0.11 97 1005.2
20260902154336 58 0 0.0 0.0 0.07 0.10 0.10 97 1005.2
20260902152833 59 0 0.0 0.0 0.07 0.09 0.09 97 1005.2
20260902151833 59 0 0.0 0.0 0.06 0.07 0.07 97 1005.2
20260902145833 59 0 0.0 0.0 0.03 0.04 0.04 96 1005.4
20260902144833 59 0 0.0 0.0 0.01 0.03 0.03 96 1005.4
20260902142833 59 0 0.0 0.0 0.01 0.03 0.01 96 1005.4
20260902141832 59 0 0.0 0.0 0.01 0.03 0.01 96 1005.6
20260902140833 59 0 0.0 0.0 0.01 0.03 0.01 96 1005.7
20260902135834 59 0 0.0 0.0 0.01 0.02 0.01 95 1005.7
20260902134834 59 127 0.0 5.0 0.01 0.02 0.01 95 1005.8
20260902134333 59 193 0.0 5.0 0.00 0.02 0.01 94 1005.9
20260902133833 59 170 0.0 5.0 0.00 0.02 0.00 94 1006.0
20260902133334 59 187 0.0 5.0 0.00 0.02 0.00 94 1006.0
20260902131832 59 184 1.0 7.0 0.00 0.02 0.00 93 1006.1
20260902125834 60 201 6.0 7.0 0.00 0.02 0.00 91 1006.4
20260902124832 60 183 5.0 6.0 0.00 0.02 0.00 89 1006.2
20260902124332 60 0 4.0 5.0 0.00 0.02 0.00 89 1006.2
20260902123833 60 194 0.0 5.0 0.00 0.02 0.00 89 1006.2
20260902123332 60 184 1.0 5.0 0.00 0.02 0.00 88 1006.3
20260902122832 60 212 3.0 5.0 0.00 0.02 0.00 88 1006.3
20260902121833 60 184 4.0 5.0 0.00 0.02 0.00 89 1006.5
20260902115832 60 200 0.0 6.0 0.00 0.02 0.00 89 1006.9
20260902114833 60 201 4.0 6.0 0.00 0.02 0.00 90 1007.1
20260902112832 60 208 3.0 5.0 0.00 0.02 0.00 91 1007.4
20260902111832 60 189 1.0 5.0 0.00 0.02 0.00 91 1007.4
20260902110833 60 201 4.0 5.0 0.00 0.02 0.00 92 1007.7
20260902105837 60 196 0.0 5.0 0.00 0.02 0.00 92 1007.8
20260902104832 60 190 4.0 6.0 0.00 0.02 0.00 92 1008.0
20260902103333 60 170 5.0 6.0 0.00 0.02 0.00 92 1008.0
20260902102833 60 179 5.0 6.0 0.00 0.02 0.00 92 1008.1
20260902102333 60 180 4.0 6.0 0.00 0.02 0.00 92 1008.1
20260902101832 60 186 4.0 7.0 0.00 0.02 0.00 92 1008.2
20260902101332 60 205 4.0 7.0 0.00 0.02 0.00 92 1008.2
20260902095832 60 194 4.0 6.0 0.00 0.02 0.00 93 1008.4
20260902094832 60 201 5.0 7.0 0.00 0.02 0.00 93 1008.4
20260902094333 60 180 5.0 7.0 0.00 0.02 0.00 93 1008.6
20260902093833 60 211 5.0 6.0 0.00 0.02 0.00 93 1008.7
20260902092833 60 186 4.0 6.0 0.00 0.02 0.00 93 1008.7
20260902092333 61 205 5.0 6.0 0.00 0.02 0.00 92 1008.8
20260902091832 61 205 5.0 7.0 0.00 0.02 0.00 92 1008.8
20260902091332 61 207 5.0 7.0 0.00 0.02 0.00 92 1008.8
20260902085333 61 204 6.0 7.0 0.00 0.02 0.00 91 1008.9
20260902084832 61 201 5.0 7.0 0.00 0.02 0.00 91 1008.9
20260902083333 61 173 5.0 7.0 0.00 0.02 0.00 92 1009.0
20260902082832 60 197 5.0 6.0 0.00 0.02 0.00 92 1009.1
20260902082333 60 201 5.0 6.0 0.00 0.02 0.00 92 1009.3
20260902081832 61 198 5.0 6.0 0.00 0.02 0.00 92 1009.3
20260902081335 61 196 5.0 5.0 0.00 0.02 0.00 92 1009.2
20260902080340 61 204 0.0 4.0 0.00 0.02 0.00 91 1009.4
20260902075832 61 183 0.0 5.0 0.00 0.02 0.00 91 1009.2
20260902074832 61 194 4.0 5.0 0.00 0.02 0.00 91 1009.5